Location: *
(49.0013°S, 169.6714°W)
Time: 18:59:23
(UTC+00:00)

Daily predictions for brighter satellites

Satellite Brightness Start Highest point End
(mag) Time Altitude Azimuth Time Altitude Azimuth Time Altitude Azimuth
CZ-4C R/B 4.2 13:25:54 33° E 13:25:54 33° E 13:30:39 10° SE
CENTAUR R/B 4.3 13:44:15 29° ENE 13:44:15 29° ENE 13:50:05 10° ESE
SL-16 R/B 4.3 13:51:40 10° SE 13:56:41 25° E 13:58:08 23° ENE
Cosmos 2297 Rocket 4.5 14:00:15 16° S 14:00:15 16° S 14:01:49 10° SSE
USA 234 3.9 14:05:12 10° ESE 14:10:50 47° S 14:10:50 47° S
H-2A R/B 4.0 14:15:19 25° S 14:15:19 25° S 14:17:44 10° S
Cosmos 2263 Rocket 3.6 14:34:57 29° S 14:34:57 29° S 14:37:57 10° SSE
Cosmos 1655 Rocket 4.2 14:44:05 10° S 14:50:31 69° ESE 14:56:49 10° NNE
Cosmos 1844 4.1 14:52:46 56° NE 14:53:04 57° ENE 14:58:43 10° SE
Cosmos 2266 Rocket 4.2 14:47:43 10° S 14:53:04 62° SSW 14:53:04 62° SSW
Meteor 1-13 Rocket 4.5 14:49:08 10° S 14:54:43 64° ESE 15:00:14 10° NNE
CZ-2C R/B 3.2 14:49:43 10° SSE 14:53:59 53° S 14:53:59 53° S
ARGOS 3.8 14:52:55 10° NE 14:58:09 53° ESE 15:03:28 10° S
NOSS 3-3 (C) 4.5 14:55:33 29° SSW 14:58:46 55° SE 15:04:24 10° ENE
ARIANE 5 R/B 2.9 14:57:21 10° NNE 15:02:26 63° ESE 15:07:32 10° S
BREEZE-M DEB (TANK) 3.8 15:05:15 55° E 15:05:15 55° E 15:11:16 10° ESE
Meteor 1-14 Rocket 4.4 15:08:51 64° SSW 15:08:51 64° SSW 15:14:09 10° S
Sich 1 3.8 15:08:53 52° ESE 15:08:53 52° ESE 15:12:46 10° SSE
CZ-4C R/B 2.9 15:11:01 60° W 15:12:25 72° SW 15:19:19 10° SE
Cosmos 2227 Rocket 4.2 15:13:35 15° SSW 15:13:35 15° SSW 15:16:16 10° S
Cosmos 1743 Rocket 4.0 15:14:19 59° ESE 15:14:19 59° ESE 15:18:27 10° SSE
UNK 3.9 15:10:59 10° SSE 15:15:29 70° E 15:15:29 70° E
Cosmos 1844 Rocket 2.5 15:19:02 80° WNW 15:19:19 84° WSW 15:25:01 10° SSE
NOAA 12 4.3 15:18:29 10° NNE 15:23:44 70° ESE 15:29:03 10° S
Cosmos 1733 4.2 15:25:55 42° SE 15:25:55 42° SE 15:28:42 10° SSE
Cosmos 1125 Rocket 4.4 15:27:09 36° SSW 15:27:09 36° SSW 15:31:09 10° SSE
Cosmos 967 Rocket 4.3 15:25:52 59° NW 15:27:08 83° SW 15:33:28 10° SE
Cosmos 220 Rocket 4.2 15:27:46 61° ENE 15:27:46 61° ENE 15:31:22 10° NNE
Lacrosse 5 rocket 4.0 15:32:47 11° NNE 15:32:47 11° NNE 15:33:00 10° NNE
ATLAS CENTAUR R/B 2.2 15:31:16 43° S 15:31:16 43° S 15:34:41 10° SSE
CENTAUR R/B 2.8 15:31:26 42° NW 15:34:25 82° SW 15:41:07 10° SE
COSMOS 2455 4.3 15:33:57 22° SW 15:34:32 22° SSW 15:39:12 10° SSE
SeaSat 1 2.4 15:29:50 10° NNE 15:34:47 87° ESE 15:38:38 17° SSW
SL-06 R/B (2) 4.5 15:33:27 40° SW 15:35:14 79° NW 15:44:34 10° NE
Cosmos 489 Rocket 4.5 15:32:30 30° NNW 15:35:47 83° ENE 15:42:06 10° SSE
Cosmos 1805 4.3 15:37:04 15° NNE 15:39:51 43° E 15:43:30 10° SSE
SL-16 R/B 2.5 15:34:34 10° SSE 15:40:47 67° WSW 15:43:13 38° NW
CZ-2D R/B 3.6 15:36:57 10° NNE 15:41:20 82° ESE 15:45:46 10° SSW
BREEZE-M DEB (TANK) 4.3 15:36:25 30° WSW 15:41:28 61° NW 15:45:28 10° NE
IRS-1C 4.1 15:36:44 10° N 15:42:01 59° WNW 15:47:23 10° SSW
BREEZE-M DEB (TANK) 2.8 15:43:20 67° NNE 15:43:20 67° NNE 15:48:51 10° ENE
Meteor 1-11 Rocket 3.6 15:41:39 40° NNW 15:43:42 70° WSW 15:49:32 10° S
DEBRIS 2.6 15:44:47 82° S 15:44:48 82° S 15:50:53 10° E
SL-19 R/B 4.0 15:39:52 10° N 15:45:10 74° WNW 15:50:46 10° SSW
PSLV R/B 4.4 15:42:45 10° NE 15:46:47 49° ESE 15:50:52 10° S
Cosmos 1862 Rocket 4.2 15:44:30 10° S 15:49:01 59° ESE 15:53:28 10° NNE
H-2A R/B 4.1 15:55:54 14° SW 15:55:54 14° SW 15:56:52 10° SSW
USA 234 4.0 15:47:36 10° E 15:53:52 47° S 15:58:10 20° SW
SJ-12 3.7 15:50:51 10° NNE 15:54:53 81° WNW 15:58:57 10° SSW
SL-08 RB Rocket 3.6 15:52:16 10° N 15:56:49 70° WNW 16:01:23 10° SSW
Cosmos 1833 Rocket 3.1 15:52:07 10° SSW 15:57:49 65° ESE 16:03:27 10° NE
Meteor 2-9 Rocket 4.2 15:56:11 17° NNW 16:00:48 69° WSW 16:06:45 10° S
Okean 1-7 4.4 15:59:58 10° S 16:04:08 41° ESE 16:08:14 10° NE
NOSS 3-2 (C) 4.4 15:55:53 10° NNW 16:04:46 70° NE 16:12:28 10° SE
IRS-P3 4.3 16:00:59 10° N 16:06:08 47° W 16:11:23 10° SSW
BREEZE-M R/B 2.9 16:06:25 53° N 16:06:25 53° N 16:09:23 10° ENE
SL-08 R/B 4.4 16:00:36 10° S 16:06:52 88° W 16:13:10 10° N
Cosmos 1553 Rocket 4.0 16:04:27 10° N 16:10:34 86° E 16:16:46 10° S
Nadezhda 2 Rocket 4.4 16:04:40 10° SSW 16:11:03 71° W 16:17:15 10° N
Cosmos 2082 Rocket 3.9 16:06:40 10° SSW 16:11:44 31° SE 16:16:44 10° ENE
Cosmos 1805 Rocket 4.3 16:17:14 32° WSW 16:17:20 32° WSW 16:21:21 10° S
Cosmos 1400 Rocket 2.6 16:13:36 10° SSW 16:17:31 88° W 16:21:21 10° N
Cosmos 2263 Rocket 4.1 16:16:38 13° SW 16:17:54 14° SSW 16:20:45 10° S
Cosmos 2228 Rocket 3.2 16:13:39 10° SSW 16:18:11 53° W 16:22:38 10° N
Cosmos 1975 2.7 16:15:12 10° NNW 16:19:11 79° W 16:23:16 10° S
Cosmos 2278 Rocket 4.0 16:15:15 10° NNE 16:20:14 32° ENE 16:25:15 10° SE
Okean 2 4.4 16:16:17 10° S 16:20:19 48° ESE 16:24:18 10° NNE
Cosmos 1707 Rocket 3.6 16:16:03 10° SSW 16:20:29 57° W 16:24:49 10° N
Cosmos 1666 Rocket 3.4 16:16:23 10° NNW 16:20:47 77° W 16:25:12 10° S
Cosmos 2251 Rocket 4.0 16:15:40 10° SSW 16:21:05 64° ESE 16:26:25 10° NE
BREEZE M DEB (TANK) 3.1 16:19:35 26° NNW 16:21:06 51° NNE 16:27:29 10° ESE
EXPRESS MD2 3.5 16:22:44 26° N 16:22:44 26° N 16:24:11 10° NE
BREEZE-M DEB (TANK) 2.5 16:28:07 37° W 16:29:06 79° NNW 16:31:29 10° ENE
CZ-2D R/B 3.2 16:26:58 10° N 16:30:37 55° W 16:34:20 10° SSW
SL-14 R/B 3.5 16:28:39 10° SSW 16:32:24 45° W 16:36:07 10° NNW
Cosmos 1340 2.4 16:30:47 10° NNW 16:34:18 87° WSW 16:37:52 10° S
CZ-2C R/B 4.3 16:31:27 10° SSW 16:34:46 16° SW 16:35:28 16° WSW
ARGOS 4.0 16:34:14 10° NNW 16:38:42 26° W 16:43:15 10° SW
Timation 2 Rocket 4.3 16:35:57 17° WNW 16:40:17 44° SW 16:46:05 10° SSE
ARIANE 5 R/B 3.7 16:38:08 10° NW 16:41:56 20° W 16:45:44 10° SW
Meteor 1-21 4.5 16:36:27 10° SSW 16:42:06 50° W 16:47:38 10° NNW
NOSS 3-3 (A) 4.3 16:36:54 10° SW 16:42:46 38° WNW 16:47:52 10° N
NOSS 3-2 (A) 4.3 16:36:28 15° WNW 16:43:52 57° SW 16:51:11 10° SE
Sich 1 4.5 16:45:40 18° WSW 16:46:15 18° WSW 16:49:22 10° SSW
Cosmos 192 4.5 16:42:36 10° NNW 16:47:34 81° ENE 16:52:37 10° SSE
Cosmos 1190 Rocket 4.5 16:43:25 10° SSW 16:48:43 65° ESE 16:53:54 10° NE
NOSS 3-3 (C) 4.4 16:43:39 10° SW 16:49:23 36° WNW 16:54:23 10° N
Okean 3 3.7 16:46:41 10° SSW 16:50:48 45° W 16:54:52 10° NNW
Helios 1B rocket 2.4 16:48:54 10° NNE 16:52:52 85° ESE 16:56:54 10° SSW
CORIOLIS 4.1 16:48:08 10° N 16:53:36 73° WNW 16:59:06 10° SSW
Cosmos 1745 Rocket 4.0 16:47:14 10° SSW 16:53:37 66° W 16:59:50 10° N
Meteor 1-31 Rocket 2.9 16:51:28 10° NNE 16:55:12 75° ESE 16:58:59 10° S
DMSP B5D2-2 4.2 16:50:38 10° S 16:55:52 55° WSW 17:01:00 10° NW
Cosmos 1633 Rocket 3.6 16:55:25 10° NW 16:59:36 39° WSW 17:03:51 10° S
SAR-Lupe-2 4.1 16:57:11 10° NNE 17:00:45 65° ESE 17:04:24 10° S
Cosmos 1356 Rocket 3.6 16:56:54 10° SSW 17:01:03 49° W 17:05:05 10° N
CZ-4C R/B 3.7 16:56:10 13° W 17:01:58 30° SSW 17:07:33 10° SE
Aureole 2 4.3 16:59:22 10° NNW 17:02:15 70° ENE 17:05:16 10° SSE
USA 238 DEB 4.1 16:54:32 10° NW 17:02:26 85° NE 17:09:49 10° SE
USA 238 4.1 16:54:39 10° NW 17:02:34 85° NE 17:09:57 10° SE
Cosmos 1844 Rocket 4.1 17:00:43 13° W 17:04:05 21° SW 17:08:17 10° S
CZ-2C R/B 2.5 17:01:39 10° N 17:05:14 64° WNW 17:08:51 10° SSW
Cosmos 1607 3.9 16:59:56 10° SW 17:06:04 77° NW 17:12:15 10° NNE
Cosmos 1954 Rocket 4.4 17:01:06 10° SSW 17:06:20 67° ESE 17:11:30 10° NNE
ATLAS CENTAUR R/B 3.4 17:06:30 10° WSW 17:09:11 16° SSW 17:11:50 10° SSE
SL-24 DEB 4.3 17:06:15 10° N 17:10:48 55° W 17:15:24 10° SSW
COSMOS 2406 3.7 17:05:38 10° SSW 17:11:21 64° ESE 17:17:01 10° NE
Cosmos 1140 Rocket 4.1 17:07:52 10° SW 17:12:31 34° WNW 17:17:09 10° NNW
SeaSat 1 4.0 17:09:49 10° NW 17:12:50 16° WNW 17:15:53 10° WSW
YAOGAN 11 4.1 17:09:34 10° SSE 17:13:57 83° WSW 17:18:19 10° NNW
Cosmos 1703 Rocket 3.7 17:11:33 10° SSW 17:16:00 56° W 17:20:19 10° N
Cosmos 1818 3.9 17:13:53 10° SW 17:19:00 44° WNW 17:24:05 10° N
COSMO-SKYMED 1 3.5 17:14:57 10° SSE 17:19:20 56° E 17:23:38 10° N
Cosmos 1943 Rocket 3.1 17:16:59 10° N 17:22:29 55° ENE 17:27:59 10° SE
Cosmos 1470 2.6 17:19:24 10° NNW 17:23:13 79° W 17:27:04 10° S
S3M 4.2 17:17:00 10° NNW 17:23:14 54° WSW 17:29:36 10° S
SL-16 R/B 4.1 17:19:43 10° SSW 17:23:16 16° SW 17:26:49 10° W
Cosmos 407 Rocket 4.0 17:18:47 10° SW 17:23:37 40° WNW 17:28:27 10° N
CENTAUR R/B 3.6 17:19:16 10° W 17:25:51 32° SSW 17:31:24 10° SE
Cosmos 1371 Rocket 4.4 17:23:22 10° NNW 17:28:43 75° ENE 17:34:09 10° SSE
Cosmos 1900 4.4 17:24:29 10° NNW 17:29:21 85° NE 17:34:16 10° SE
Meteor 1-4 Rocket 2.2 17:26:19 10° SSW 17:29:34 81° WNW 17:32:47 10° N
SMAP 3.8 17:25:37 10° NNW 17:29:50 32° W 17:34:06 10° SSW
GEOS 3 Rocket 4.0 17:26:15 10° SSE 17:31:18 49° SW 17:36:23 10° WNW
